DW8027 Weather Reports


Display with metric or nautical units.
time (UTC)temp
F
wind
direction
speed
MPH
gust
MPH
rain 1hr
in
rain 24hr
in
rain mn
in
humidity
%
barometer
mb
20190117164334 45 118 0.0 0.0 0.00 0.00 0.00 84 1023.6
20190117163841 45 81 0.0 0.0 0.00 0.00 0.00 84 1023.9
20190117163329 45 80 0.0 0.0 0.00 0.00 0.00 85 1024.1
20190117162834 45 81 0.0 0.0 0.00 0.00 0.00 85 1024.1
20190117162340 44 81 0.0 0.0 0.00 0.00 0.00 85 1024.1
20190117161825 44 80 0.0 0.0 0.00 0.00 0.00 86 1024.2
20190117161330 44 81 0.0 0.0 0.00 0.00 0.00 87 1024.2
20190117160836 43 81 0.0 0.0 0.00 0.00 0.00 89 1024.2
20190117160343 42 81 0.0 0.0 0.00 0.00 0.00 90 1024.2
20190117155828 42 86 0.0 0.0 0.00 0.00 0.00 91 1024.3
20190117155334 41 86 0.0 0.0 0.00 0.00 0.00 92 1024.1
20190117154841 41 86 0.0 0.0 0.00 0.00 0.00 93 1024.1
20190117154328 40 100 0.0 0.0 0.00 0.00 0.00 94 1024.1
20190117153834 40 101 0.0 0.0 0.00 0.00 0.00 95 1024.1
20190117153341 40 103 0.0 0.0 0.00 0.00 0.00 96 1024.1
20190117152827 39 103 0.0 0.0 0.00 0.00 0.00 97 1024.1
20190117152333 39 103 0.0 0.0 0.00 0.00 0.00 98 1024.3
20190117151837 38 103 0.0 0.0 0.00 0.00 0.00 98 1024.5
20190117151343 38 103 0.0 0.0 0.00 0.00 0.00 98 1024.0
20190117150830 37 103 0.0 0.0 0.00 0.00 0.00 99 1023.8
20190117150336 37 103 0.0 0.0 0.00 0.00 0.00 99 1023.6
20190117145841 36 105 0.0 0.0 0.00 0.00 0.00 99 1023.4
20190117145327 35 23 0.0 0.0 0.00 0.00 0.00 99 1023.7
20190117144833 35 23 0.0 0.0 0.00 0.00 0.00 99 1023.8
20190117144343 35 23 0.0 0.0 0.00 0.00 0.00 99 1023.8
20190117143827 35 23 0.0 0.0 0.00 0.00 0.00 99 1023.8
20190117143334 35 22 0.0 0.0 0.00 0.00 0.00 99 1023.9
20190117142837 35 18 0.0 0.0 0.00 0.00 0.00 99 1023.8
20190117142324 35 18 0.0 0.0 0.00 0.00 0.00 99 1023.5
20190117141831 34 16 0.0 0.0 0.00 0.00 0.00 99 1023.0
20190117141338 34 94 0.0 0.0 0.00 0.00 0.00 99 1022.7
20190117140824 33 100 0.0 0.0 0.00 0.00 0.00 99 1022.3
20190117140332 33 100 0.0 0.0 0.00 0.00 0.00 99 1022.0
20190117135838 33 100 0.0 0.0 0.00 0.00 0.00 99 1021.9
20190117135324 32 100 0.0 0.0 0.00 0.00 0.00 99 1021.7
20190117134830 32 100 0.0 0.0 0.00 0.00 0.00 99 1021.9
20190117134336 32 100 0.0 0.0 0.00 0.00 0.00 99 1022.1
20190117133825 31 100 0.0 0.0 0.00 0.00 0.00 99 1022.1
20190117133332 31 100 0.0 0.0 0.00 0.00 0.00 99 1022.2
20190117132838 31 100 0.0 0.0 0.00 0.00 0.00 99 1022.1
20190117132324 30 100 0.0 0.0 0.00 0.00 0.00 99 1022.1
20190117131829 30 100 0.0 0.0 0.00 0.00 0.00 99 1022.2
20190117131335 30 100 0.0 0.0 0.00 0.00 0.00 99 1022.5
20190117130842 30 101 0.0 0.0 0.00 0.00 0.00 99 1022.6
20190117130330 30 101 0.0 0.0 0.00 0.00 0.00 99 1022.6
20190117125835 30 100 0.0 0.0 0.00 0.00 0.00 99 1022.7
20190117125342 29 100 0.0 0.0 0.00 0.00 0.00 99 1022.7
20190117124828 29 100 0.0 0.0 0.00 0.00 0.00 99 1022.7
20190117124419 29 100 0.0 0.0 0.00 0.00 0.00 99 1022.7
20190117123841 29 100 0.0 0.0 0.00 0.00 0.00 99 1022.8
20190117123327 29 100 0.0 0.0 0.00 0.00 0.00 99 1023.0
20190117122833 29 100 0.0 0.0 0.00 0.00 0.00 99 1023.3
20190117122339 29 100 0.0 0.0 0.00 0.00 0.00 99 1023.5
20190117121824 29 100 0.0 0.0 0.00 0.00 0.00 99 1023.5
20190117121331 29 100 0.0 0.0 0.00 0.00 0.00 99 1023.3
20190117120837 29 100 0.0 0.0 0.00 0.00 0.00 99 1023.2
20190117120326 29 100 0.0 0.0 0.00 0.00 0.00 99 1023.0
20190117115830 29 100 0.0 0.0 0.00 0.00 0.00 99 1023.1
20190117115337 29 100 0.0 0.0 0.00 0.00 0.00 99 1023.1
20190117114841 28 100 0.0 0.0 0.00 0.00 0.00 99 1023.2
20190117114329 29 100 0.0 0.0 0.00 0.00 0.00 99 1023.1
20190117113835 29 100 0.0 0.0 0.00 0.00 0.00 99 1023.1
20190117113340 29 100 0.0 0.0 0.00 0.00 0.00 99 1023.2
20190117112824 29 100 0.0 0.0 0.00 0.00 0.00 99 1023.2
20190117112330 29 100 0.0 0.0 0.00 0.00 0.00 99 1023.0
20190117111838 29 100 0.0 0.0 0.00 0.00 0.00 99 1023.1
20190117111324 29 100 0.0 0.0 0.00 0.00 0.00 99 1023.0
20190117110831 29 100 0.0 0.0 0.00 0.00 0.00 99 1022.9
20190117110337 29 101 0.0 0.0 0.00 0.00 0.00 99 1022.9
20190117105841 29 100 0.0 0.0 0.00 0.00 0.00 99 1023.0
20190117105328 29 100 0.0 0.0 0.00 0.00 0.00 99 1023.0
20190117104834 29 100 0.0 0.0 0.00 0.00 0.00 99 1022.9
20190117104340 29 100 0.0 0.0 0.00 0.00 0.00 99 1022.9
20190117103826 29 101 0.0 0.0 0.00 0.00 0.00 99 1022.8
20190117103334 29 100 0.0 0.0 0.00 0.00 0.00 99 1022.8
20190117102839 29 100 0.0 0.0 0.00 0.00 0.00 99 1022.9
20190117102326 29 101 0.0 0.0 0.00 0.00 0.00 99 1022.9
20190117101833 29 100 0.0 0.0 0.00 0.00 0.00 99 1023.0
20190117101338 29 100 0.0 0.0 0.00 0.00 0.00 99 1023.1
20190117100823 29 100 0.0 0.0 0.00 0.00 0.00 98 1023.1
20190117100330 29 100 0.0 0.0 0.00 0.00 0.00 98 1022.8
20190117095835 29 100 0.0 0.0 0.00 0.00 0.00 98 1022.8
20190117095340 29 101 0.0 0.0 0.00 0.00 0.00 98 1022.8
20190117094827 29 101 0.0 0.0 0.00 0.00 0.00 98 1022.8
20190117094332 29 101 0.0 0.0 0.00 0.00 0.00 98 1022.8
20190117093838 29 100 0.0 0.0 0.00 0.00 0.00 98 1023.0
20190117093329 29 100 0.0 0.0 0.00 0.00 0.00 98 1023.1
20190117092831 29 100 0.0 0.0 0.00 0.00 0.00 98 1023.2
20190117092337 29 100 0.0 0.0 0.00 0.00 0.00 98 1023.2
20190117091843 29 100 0.0 0.0 0.00 0.00 0.00 98 1023.3
20190117091329 29 100 0.0 0.0 0.00 0.00 0.00 98 1023.4
20190117090836 29 101 0.0 0.0 0.00 0.00 0.00 98 1023.6
20190117090343 29 101 0.0 0.0 0.00 0.00 0.00 98 1023.7
20190117085828 29 100 0.0 0.0 0.00 0.00 0.00 98 1023.8
20190117085334 29 100 0.0 0.0 0.00 0.00 0.00 98 1023.8
20190117084840 29 100 0.0 0.0 0.00 0.00 0.00 98 1023.9
20190117084326 29 100 0.0 0.0 0.00 0.00 0.00 98 1023.8
20190117083832 29 100 0.0 0.0 0.00 0.00 0.00 98 1023.8
20190117083339 29 101 0.0 0.0 0.00 0.00 0.00 98 1023.8
20190117082843 29 100 0.0 0.0 0.00 0.00 0.00 98 1023.8
20190117082330 29 100 0.0 0.0 0.00 0.00 0.00 98 1023.8
20190117081836 30 100 0.0 0.0 0.00 0.00 0.00 98 1023.9
20190117081341 30 101 0.0 0.0 0.00 0.00 0.00 98 1023.9
20190117080828 30 100 0.0 0.0 0.00 0.00 0.00 98 1024.0
20190117080335 30 100 0.0 0.0 0.00 0.00 0.00 98 1024.0
20190117075840 30 100 0.0 0.0 0.00 0.00 0.00 98 1024.0
20190117075325 30 100 0.0 0.0 0.00 0.00 0.00 98 1024.1
20190117074830 30 101 0.0 0.0 0.00 0.00 0.00 98 1024.1
20190117074337 30 100 0.0 0.0 0.00 0.00 0.00 98 1024.1
20190117073843 30 101 0.0 0.0 0.00 0.00 0.00 98 1024.1
20190117073329 30 101 0.0 0.0 0.00 0.00 0.00 98 1024.1
20190117072832 30 100 0.0 0.0 0.00 0.00 0.00 98 1024.1
20190117072338 30 100 0.0 0.0 0.00 0.00 0.00 98 1024.0
20190117071843 30 100 0.0 0.0 0.00 0.00 0.00 98 1023.9
20190117071330 30 100 0.0 0.0 0.00 0.00 0.00 98 1023.9
20190117070918 30 100 0.0 0.0 0.00 0.00 0.00 98 1023.9
20190117070341 30 100 0.0 0.0 0.00 0.00 0.00 98 1024.0
20190117065826 30 100 0.0 0.0 0.00 0.00 0.00 98 1023.8
20190117065332 30 100 0.0 0.0 0.00 0.00 0.00 98 1023.8
20190117064838 30 100 0.0 0.0 0.00 0.00 0.00 98 1023.7
20190117064341 30 100 0.0 0.0 0.00 0.00 0.00 98 1023.7
20190117063827 31 100 0.0 0.0 0.00 0.00 0.00 98 1023.5
20190117063333 31 100 0.0 0.0 0.00 0.00 0.00 98 1023.5
20190117062837 31 100 0.0 0.0 0.00 0.00 0.00 98 1023.5
20190117062343 31 100 0.0 0.0 0.00 0.00 0.00 98 1023.5
20190117061830 31 100 0.0 0.0 0.00 0.00 0.00 97 1023.5
20190117061337 31 100 0.0 0.0 0.00 0.00 0.00 97 1023.5
20190117060843 31 100 0.0 0.0 0.00 0.00 0.00 97 1023.5
20190117060331 31 101 0.0 0.0 0.00 0.00 0.00 97 1023.6
20190117055837 31 100 0.0 0.0 0.00 0.00 0.00 97 1023.7
20190117055343 31 100 0.0 0.0 0.00 0.00 0.00 97 1023.6
20190117054830 31 100 0.0 0.0 0.00 0.00 0.00 97 1023.7
20190117054337 32 100 0.0 0.0 0.00 0.00 0.00 97 1023.8
20190117053843 32 100 0.0 0.0 0.00 0.00 0.00 97 1024.0
20190117053331 32 100 0.0 0.0 0.00 0.00 0.00 97 1024.0
20190117052837 32 101 0.0 0.0 0.00 0.00 0.00 97 1024.1
20190117052327 32 100 0.0 0.0 0.00 0.00 0.00 97 1024.1
20190117051833 32 100 0.0 0.0 0.00 0.00 0.00 97 1024.2
20190117051339 33 100 0.0 0.0 0.00 0.00 0.00 97 1024.2
20190117050826 33 101 0.0 0.0 0.00 0.00 0.00 97 1024.2
20190117050332 33 100 0.0 0.0 0.00 0.00 0.00 96 1024.2
20190117045838 33 100 0.0 0.0 0.00 0.00 0.00 96 1024.3
20190117045324 33 100 0.0 0.0 0.00 0.00 0.00 96 1024.4
20190117044831 34 100 0.0 0.0 0.00 0.00 0.00 96 1024.4
20190117044338 34 100 0.0 0.0 0.00 0.00 0.00 96 1024.4
20190117043825 34 100 0.0 0.0 0.00 0.00 0.00 96 1024.4
20190117043332 34 100 0.0 0.0 0.00 0.00 0.00 96 1024.3
20190117042838 35 100 0.0 0.0 0.00 0.00 0.00 96 1024.4
20190117042324 35 101 0.0 0.0 0.00 0.00 0.00 97 1024.5
20190117041830 35 100 0.0 0.0 0.00 0.00 0.00 97 1024.6
20190117041337 35 100 0.0 0.0 0.00 0.00 0.00 96 1024.5
20190117040842 35 100 0.0 0.0 0.00 0.00 0.00 96 1024.5
20190117040330 35 100 0.0 0.0 0.00 0.00 0.00 96 1024.4
20190117035835 35 100 0.0 0.0 0.00 0.00 0.00 96 1024.4
20190117035341 35 100 0.0 0.0 0.00 0.00 0.00 96 1024.4
20190117034336 35 100 0.0 0.0 0.00 0.00 0.00 96 1024.2
20190117033842 35 100 0.0 0.0 0.00 0.00 0.00 96 1024.2
20190117033328 35 101 0.0 0.0 0.00 0.00 0.00 96 1024.1
20190117032833 35 100 0.0 0.0 0.00 0.00 0.00 96 1024.1
20190117031828 35 101 0.0 0.0 0.00 0.00 0.00 95 1023.9
20190117031334 35 101 0.0 0.0 0.00 0.00 0.00 95 1023.8
20190117030841 35 101 0.0 0.0 0.00 0.00 0.00 95 1023.7
20190117030327 36 100 0.0 0.0 0.00 0.00 0.00 95 1023.7
20190117025833 36 100 0.0 0.0 0.00 0.00 0.00 95 1023.6
20190117025340 36 101 0.0 0.0 0.00 0.00 0.00 94 1023.6
20190117024827 36 100 0.0 0.0 0.00 0.00 0.00 94 1023.6
20190117024332 36 101 0.0 0.0 0.00 0.00 0.00 94 1023.6
20190117023839 36 101 0.0 0.0 0.00 0.00 0.00 93 1023.6
20190117023327 36 100 0.0 0.0 0.00 0.00 0.00 93 1023.6
20190117022831 36 101 0.0 0.0 0.00 0.00 0.00 92 1023.7
20190117022337 37 101 0.0 0.0 0.00 0.00 0.00 92 1023.7
20190117021843 37 100 0.0 0.0 0.00 0.00 0.00 92 1023.7
20190117021328 37 101 0.0 0.0 0.00 0.00 0.00 91 1023.8
20190117020835 37 100 0.0 0.0 0.00 0.00 0.00 91 1023.7
20190117020341 38 100 0.0 0.0 0.00 0.00 0.00 91 1023.7
20190117015827 38 101 0.0 0.0 0.00 0.00 0.00 91 1023.8
20190117015332 38 101 0.0 0.0 0.00 0.00 0.00 90 1023.8
20190117014838 38 100 0.0 0.0 0.00 0.00 0.00 90 1023.9
20190117014328 39 100 0.0 0.0 0.00 0.00 0.00 90 1023.8
20190117013834 39 101 0.0 0.0 0.00 0.00 0.00 89 1023.9
20190117013341 39 101 0.0 0.0 0.00 0.00 0.00 90 1024.0
20190117012827 39 101 0.0 0.0 0.00 0.00 0.00 89 1024.0
20190117012332 40 101 0.0 0.0 0.00 0.00 0.00 90 1024.0
20190117011839 40 101 0.0 0.0 0.00 0.00 0.00 90 1024.0
20190117011326 40 100 0.0 0.0 0.00 0.00 0.00 89 1023.9
20190117010830 40 100 0.0 0.0 0.00 0.00 0.00 89 1023.9
20190117010338 40 100 0.0 0.0 0.00 0.00 0.00 88 1023.9
20190117005842 40 100 0.0 0.0 0.00 0.00 0.00 87 1023.8
20190117005328 40 100 0.0 0.0 0.00 0.00 0.00 87 1023.7
20190117004835 41 101 0.0 0.0 0.00 0.00 0.00 86 1023.7
20190117003828 41 101 0.0 0.0 0.00 0.00 0.00 87 1023.6
20190117003335 41 101 0.0 0.0 0.00 0.00 0.00 87 1023.6
20190117002838 41 124 0.0 0.0 0.00 0.00 0.00 86 1023.7
20190117002343 42 124 0.0 0.0 0.00 0.00 0.00 85 1023.6
20190117001830 42 124 0.0 0.0 0.00 0.00 0.00 84 1023.6
20190117001336 43 124 0.0 0.0 0.00 0.00 0.00 82 1023.6
20190117000841 43 124 0.0 0.0 0.00 0.00 0.00 81 1023.7
20190117000329 44 124 0.0 0.0 0.00 0.00 0.00 80 1023.7
20190116235834 44 124 0.0 0.0 0.00 0.00 0.00 80 1023.7
20190116235340 45 124 0.0 0.0 0.00 0.00 0.00 79 1023.6
20190116234827 45 124 0.0 0.0 0.00 0.00 0.00 78 1023.6
20190116234333 45 124 0.0 0.0 0.00 0.00 0.00 76 1023.5
20190116233839 46 124 0.0 0.0 0.00 0.00 0.00 76 1023.4
20190116233326 47 124 0.0 0.0 0.00 0.00 0.00 75 1023.3
20190116232830 47 124 0.0 0.0 0.00 0.00 0.00 72 1023.4
20190116232336 48 124 0.0 0.0 0.00 0.00 0.00 71 1023.4
20190116231841 48 124 0.0 0.0 0.00 0.00 0.00 71 1023.3
20190116231326 48 124 0.0 0.0 0.00 0.00 0.00 70 1023.3
20190116230340 49 124 0.0 0.0 0.00 0.00 0.00 71 1023.2
20190116225826 49 124 0.0 0.0 0.00 0.00 0.00 69 1023.2
20190116225333 49 124 0.0 0.0 0.00 0.00 0.00 70 1023.1
20190116224839 50 124 0.0 0.0 0.00 0.00 0.00 69 1023.1
20190116224324 50 124 0.0 0.0 0.00 0.00 0.00 68 1023.1
20190116223831 51 124 0.0 0.0 0.00 0.00 0.00 67 1023.1
20190116223338 51 124 0.0 0.0 0.00 0.00 0.00 67 1023.0
20190116222843 52 124 0.0 0.0 0.00 0.00 0.00 65 1023.0
20190116222329 52 124 0.0 0.0 0.00 0.00 0.00 65 1023.0
20190116221836 52 124 0.0 0.0 0.00 0.00 0.00 64 1023.0
20190116221326 52 124 0.0 0.0 0.00 0.00 0.00 63 1023.0
20190116220833 53 124 0.0 0.0 0.00 0.00 0.00 63 1022.9
20190116220340 53 117 0.0 0.0 0.00 0.00 0.00 60 1022.9
20190116215825 53 96 0.0 0.0 0.00 0.00 0.00 60 1022.8
20190116215331 53 96 0.0 0.0 0.00 0.00 0.00 61 1022.8
20190116214838 54 96 0.0 0.0 0.00 0.00 0.00 57 1022.8
20190116214324 54 96 0.0 0.0 0.00 0.00 0.00 58 1022.8
20190116213828 54 97 0.0 0.0 0.00 0.00 0.00 56 1022.8
20190116213336 54 52 0.0 0.0 0.00 0.00 0.00 54 1022.8
20190116212842 54 276 0.0 0.0 0.00 0.00 0.00 58 1022.8
20190116212328 54 194 0.0 0.0 0.00 0.00 0.00 58 1022.8
20190116211834 55 194 0.0 0.0 0.00 0.00 0.00 58 1022.8
20190116211342 55 288 0.0 0.0 0.00 0.00 0.00 57 1022.8
20190116210828 55 118 0.0 0.0 0.00 0.00 0.00 56 1022.8
20190116210336 56 195 0.0 0.0 0.00 0.00 0.00 54 1022.8
20190116205841 56 195 0.0 0.0 0.00 0.00 0.00 54 1022.8
20190116205327 56 41 0.0 0.0 0.00 0.00 0.00 54 1022.8
20190116204834 56 82 0.0 0.0 0.00 0.00 0.00 55 1022.9
20190116204339 56 252 0.0 0.0 0.00 0.00 0.00 53 1022.9
20190116203825 56 351 0.0 0.0 0.00 0.00 0.00 53 1022.9
20190116203332 57 356 0.0 0.0 0.00 0.00 0.00 54 1022.8
20190116202838 57 246 0.0 0.0 0.00 0.00 0.00 54 1022.8
20190116202324 56 315 0.0 0.0 0.00 0.00 0.00 54 1022.8
20190116201830 56 143 0.0 0.0 0.00 0.00 0.00 54 1022.7
20190116201336 56 61 0.0 0.0 0.00 0.00 0.00 53 1022.7
20190116200842 56 65 0.0 0.0 0.00 0.00 0.00 56 1022.8
20190116200330 56 107 0.0 0.0 0.00 0.00 0.00 56 1022.8
20190116195834 56 113 0.0 0.0 0.00 0.00 0.00 55 1022.9
20190116195340 57 321 0.0 0.0 0.00 0.00 0.00 56 1023.0
20190116194828 56 162 0.0 0.0 0.00 0.00 0.00 56 1022.9
20190116194334 56 297 0.0 0.0 0.00 0.00 0.00 55 1023.0
20190116193841 56 197 0.0 0.0 0.00 0.00 0.00 57 1023.0
20190116193327 55 119 0.0 0.0 0.00 0.00 0.00 58 1023.0
20190116192831 56 98 0.0 0.0 0.00 0.00 0.00 56 1023.0
20190116192337 56 41 0.0 0.0 0.00 0.00 0.00 58 1023.1
20190116191824 55 179 0.0 0.0 0.00 0.00 0.00 59 1023.1
20190116191330 55 211 0.0 0.0 0.00 0.00 0.00 59 1023.1
20190116190837 54 128 0.0 0.0 0.00 0.00 0.00 60 1023.1
20190116190344 54 103 0.0 0.0 0.00 0.00 0.00 60 1023.2
20190116185829 54 50 0.0 0.0 0.00 0.00 0.00 62 1023.3
20190116185336 53 23 0.0 0.0 0.00 0.00 0.00 62 1023.3
20190116184826 53 135 0.0 1.0 0.00 0.00 0.00 61 1023.3
20190116184333 53 108 0.0 1.0 0.00 0.00 0.00 62 1023.4
20190116183838 53 240 0.0 0.0 0.00 0.00 0.00 64 1023.4
20190116183326 53 71 0.0 0.0 0.00 0.00 0.00 63 1023.5
20190116182830 53 15 0.0 0.0 0.00 0.00 0.00 63 1023.6
20190116182336 53 241 0.0 0.0 0.00 0.00 0.00 64 1023.7
20190116181842 53 77 0.0 0.0 0.00 0.00 0.00 64 1023.8
20190116181328 52 70 0.0 0.0 0.00 0.00 0.00 65 1023.9
20190116180834 52 323 0.0 0.0 0.00 0.00 0.00 65 1024.1
20190116180341 52 197 0.0 0.0 0.00 0.00 0.00 65 1024.1
20190116175825 52 72 0.0 0.0 0.00 0.00 0.00 64 1024.3
20190116175329 51 336 0.0 1.0 0.00 0.00 0.00 66 1024.4
20190116174835 51 309 0.0 1.0 0.00 0.00 0.00 68 1024.5
20190116174338 50 131 0.0 0.0 0.00 0.00 0.00 68 1024.5
20190116173840 50 103 0.0 0.0 0.00 0.00 0.00 68 1024.6
20190116173345 50 98 0.0 0.0 0.00 0.00 0.00 67 1024.6
20190116172830 49 277 0.0 0.0 0.00 0.00 0.00 70 1024.7
20190116172336 49 77 0.0 0.0 0.00 0.00 0.00 71 1024.8
20190116171840 48 86 0.0 0.0 0.00 0.00 0.00 71 1024.9
20190116171325 48 222 0.0 0.0 0.00 0.00 0.00 72 1025.0
20190116170830 48 49 0.0 0.0 0.00 0.00 0.00 72 1025.2
20190116170337 47 225 0.0 0.0 0.00 0.00 0.00 74 1025.3
20190116165841 47 225 0.0 0.0 0.00 0.00 0.00 74 1025.3
20190116165328 46 110 0.0 0.0 0.00 0.00 0.00 74 1025.4
20190116164834 46 289 0.0 0.0 0.00 0.00 0.00 76 1025.4